Home   Weather   Grenoble   Past weeks

Flag for France Past Weather in Grenoble, Rhône-Alpes, France — Yesterday and Last 2 Weeks

Now
28 °F

Clear.


Feels Like: 28 °F
Forecast: 28 / 43 °F
Wind: 2 mph from East

Location: Grenoble / St. Geoirs

Current Time: Jan 22, 2017 at 7:34:26 pm

Latest Report: Jan 22, 2017 at 6:30 pm


Visibility: 4 mi

Pressure: 30.18 "Hg

Humidity: 86%

Dew Point: 25 °F

Location of GrenobleLocation

Past Weather in Grenoble — Graph

°F

Grenoble Temperature Yesterday

Maximum temperature yesterday: 37 °F (at 2:00 pm)
Minimum temperature yesterday: 18 °F (at 9:00 pm)
Average temperature yesterday: 27 °F

High & Low Weather Summary for the Past Weeks

 TemperatureHumidityPressure
High50 °F (Jan 12, 9:30 pm)100% (Jan 8, 8:00 pm)30.48 "Hg (Jan 8, 8:00 pm)
Low10 °F (Jan 19, 6:30 am)51% (Jan 8, 2:30 am)29.74 "Hg (Jan 12, 10:00 pm)
Average28 °F84%30.16 "Hg
* Reported Jan 7 6:00 pm — Jan 22 6:30 pm, Grenoble, Weather by CustomWeather, © 2017

Note: Actual official high and low records may vary slightly from our data, if they occured in-between our weather recording intervals... More about our weather records

Advertising

Grenoble Weather History for the Previous 24 Hours

Scroll right to see more
 ConditionsComfort  
Time TempWeatherWind HumidityBarometerVisibility
6:30 pm
Sun, Jan 22
28 °FClear.2 mph86%30.18 "Hg4 mi
6:00 pm28 °FLight freezing rain. Clear.No wind86%30.15 "Hg4 mi
5:30 pm30 °FLight freezing rain. Clear.5 mph80%30.15 "Hg4 mi
5:00 pm30 °FClear.3 mph80%30.15 "Hg4 mi
4:30 pm32 °FClear.3 mph75%30.15 "Hg5 mi
4:00 pm34 °FClear.2 mph75%30.15 "Hg5 mi
3:30 pm32 °FClear.3 mph80%30.15 "Hg5 mi
3:00 pm32 °FClear.3 mph80%30.15 "Hg5 mi
2:30 pm32 °FClear.5 mph75%30.15 "Hg5 mi
2:00 pm32 °FClear.3 mph75%30.12 "Hg5 mi
1:30 pm30 °FClear.6 mph80%30.15 "Hg5 mi
1:00 pm30 °FClear.7 mph80%30.15 "Hg5 mi
12:30 pm30 °FClear.5 mph80%30.18 "Hg4 mi
12:00 pm28 °FClear.7 mph86%30.18 "Hg4 mi
11:30 am28 °FClear.3 mph86%30.18 "Hg4 mi
11:00 am25 °FIce fog.5 mph93%30.18 "Hg3 mi
10:30 am25 °FIce fog.5 mph86%30.18 "Hg3 mi
10:00 am25 °FClear.5 mph86%30.18 "Hg4 mi
9:30 am21 °FIce fog.5 mph93%30.18 "Hg3 mi
9:00 am19 °FIce fog.2 mph93%30.18 "Hg2 mi
8:30 am18 °FIce fog.No wind93%30.15 "Hg3 mi
8:00 am18 °FIce fog.2 mph93%30.15 "Hg3 mi
7:30 am18 °FIce fog.6 mph93%30.15 "Hg3 mi
7:00 am18 °FIce fog.5 mph86%30.15 "Hg3 mi
6:30 am16 °FIce fog.5 mph93%30.15 "Hg3 mi
6:00 am18 °FIce fog.3 mph93%30.15 "Hg3 mi
5:30 am16 °FIce fog.5 mph93%30.15 "Hg3 mi
5:00 am18 °FIce fog.3 mph86%30.18 "Hg2 mi
4:30 am18 °FIce fog.2 mph93%30.18 "Hg3 mi
4:00 am18 °FIce fog.3 mph93%30.18 "Hg3 mi
3:30 am18 °FIce fog.1 mph93%30.18 "Hg3 mi
3:00 am18 °FIce fog.2 mph93%30.18 "Hg3 mi
2:30 am18 °FIce fog.3 mph93%30.21 "Hg2 mi
2:00 am19 °FIce fog.7 mph93%30.21 "Hg3 mi
1:30 am18 °FIce fog.6 mph93%30.21 "Hg2 mi
1:00 am18 °FIce fog.5 mph93%30.21 "Hg3 mi
12:30 am18 °FIce fog.3 mph93%30.21 "Hg2 mi
12:00 am18 °FIce fog.2 mph93%30.24 "Hg3 mi
11:30 pm
Sat, Jan 21
18 °FIce fog.3 mph93%30.21 "Hg3 mi
11:00 pm18 °FIce fog.2 mph93%30.24 "Hg2 mi
10:30 pm18 °FIce fog.3 mph93%30.24 "Hg2 mi
10:00 pm19 °FIce fog.3 mph93%30.24 "Hg3 mi
9:30 pm18 °FIce fog.3 mph93%30.24 "Hg3 mi
9:00 pm18 °FIce fog.3 mph93%30.24 "Hg3 mi
8:30 pm19 °FIce fog.2 mph86%30.24 "Hg3 mi
8:00 pm23 °FClear.3 mph80%30.24 "Hg4 mi
7:30 pm23 °FClear.No wind86%30.24 "Hg4 mi
7:00 pm25 °FClear.2 mph86%30.24 "Hg4 mi
Weather by CustomWeather, © 2017

See weather overviewHow to use our weather pages